Time,TemperatureF,DewpointF,PressureIn,WindDirection,WindDirectionDegrees,WindSpeedMPH,WindSpeedGustMPH,Humidity,HourlyPrecipIn,Conditions,Clouds,dailyrainin,SolarRadiationWatts/m^2,SoftwareType,DateUTC
2013-04-27 00:21:00,69.0,28.0,30.24,East,97,3.0,5.0,22,-99.99,,,-99.99,0.000000,,2013-04-27 07:21:00,
2013-04-27 01:21:00,68.0,28.0,30.25,SE,131,0.0,0.0,22,-99.99,,,-99.99,0.000000,,2013-04-27 08:21:00,
2013-04-27 02:21:00,68.0,28.0,30.24,NE,50,1.0,4.0,23,-99.99,,,-99.99,0.000000,,2013-04-27 09:21:00,
2013-04-27 03:22:00,67.0,29.0,30.23,ENE,76,3.0,4.0,24,-99.99,,,-99.99,0.000000,,2013-04-27 10:22:00,
2013-04-27 04:22:00,67.0,28.0,30.23,South,190,1.0,2.0,23,-99.99,,,-99.99,0.000000,,2013-04-27 11:22:00,
2013-04-27 05:21:00,67.0,29.0,30.23,SW,217,1.0,2.0,24,-99.99,,,-99.99,0.000000,,2013-04-27 12:21:00,
2013-04-27 06:21:00,67.0,28.0,30.23,ESE,106,0.0,1.0,23,-99.99,,,-99.99,0.000000,,2013-04-27 13:21:00,
2013-04-27 07:21:00,66.0,29.0,30.23,ENE,72,3.0,5.0,24,-99.99,,,-99.99,17.000000,,2013-04-27 14:21:00,
2013-04-27 08:33:00,70.0,31.0,30.24,North,359,1.0,2.0,24,-99.99,,,-99.99,254.000000,,2013-04-27 15:33:00,
2013-04-27 09:22:00,70.0,31.0,30.26,West,259,1.0,2.0,24,-99.99,,,-99.99,498.000000,,2013-04-27 16:22:00,
2013-04-27 09:32:00,70.0,31.0,30.26,West,259,1.0,2.0,24,-99.99,,,-99.99,498.000000,,2013-04-27 16:32:00,
2013-04-27 09:40:00,71.0,35.0,30.26,West,260,2.0,3.0,26,-99.99,,,-99.99,715.000000,,2013-04-27 16:40:00,
2013-04-27 10:22:00,71.0,35.0,30.26,West,260,2.0,3.0,26,-99.99,,,-99.99,715.000000,,2013-04-27 17:22:00,
2013-04-27 10:31:00,71.0,35.0,30.26,West,260,2.0,3.0,26,-99.99,,,-99.99,715.000000,,2013-04-27 17:31:00,
2013-04-27 10:40:00,72.0,37.0,30.27,West,265,3.0,5.0,28,-99.99,,,-99.99,886.000000,,2013-04-27 17:40:00,
2013-04-27 11:22:00,72.0,37.0,30.27,West,265,3.0,5.0,28,-99.99,,,-99.99,886.000000,,2013-04-27 18:22:00,
2013-04-27 11:32:00,72.0,37.0,30.27,West,265,3.0,5.0,28,-99.99,,,-99.99,886.000000,,2013-04-27 18:32:00,
2013-04-27 11:40:00,72.0,37.0,30.27,West,266,4.0,6.0,27,-99.99,,,-99.99,993.000000,,2013-04-27 18:40:00,
2013-04-27 12:21:00,72.0,37.0,30.27,West,266,4.0,6.0,27,-99.99,,,-99.99,993.000000,,2013-04-27 19:21:00,
2013-04-27 12:32:00,72.0,37.0,30.27,West,266,4.0,6.0,27,-99.99,,,-99.99,993.000000,,2013-04-27 19:32:00,
2013-04-27 12:40:00,73.0,38.0,30.26,West,269,4.0,6.0,28,-99.99,,,-99.99,1039.000000,,2013-04-27 19:40:00,
2013-04-27 13:21:00,73.0,38.0,30.26,West,269,4.0,6.0,28,-99.99,,,-99.99,1039.000000,,2013-04-27 20:21:00,
2013-04-27 13:32:00,73.0,38.0,30.26,West,269,4.0,6.0,28,-99.99,,,-99.99,1039.000000,,2013-04-27 20:32:00,
2013-04-27 13:40:00,74.0,40.0,30.25,West,281,4.0,6.0,29,-99.99,,,-99.99,1024.000000,,2013-04-27 20:40:00,
2013-04-27 14:21:00,74.0,40.0,30.25,West,281,4.0,6.0,29,-99.99,,,-99.99,1024.000000,,2013-04-27 21:21:00,
2013-04-27 14:32:00,74.0,40.0,30.25,West,281,4.0,6.0,29,-99.99,,,-99.99,1024.000000,,2013-04-27 21:32:00,
2013-04-27 14:40:00,74.0,38.0,30.23,WNW,283,4.0,6.0,27,-99.99,,,-99.99,951.000000,,2013-04-27 21:40:00,
2013-04-27 15:32:00,74.0,38.0,30.23,WNW,283,4.0,6.0,27,-99.99,,,-99.99,951.000000,,2013-04-27 22:32:00,
2013-04-27 15:40:00,77.0,38.0,30.21,WNW,285,3.0,5.0,25,-99.99,,,-99.99,819.000000,,2013-04-27 22:40:00,
2013-04-27 16:22:00,77.0,38.0,30.21,WNW,285,3.0,5.0,25,-99.99,,,-99.99,819.000000,,2013-04-27 23:22:00,
2013-04-27 16:32:00,77.0,38.0,30.21,WNW,285,3.0,5.0,25,-99.99,,,-99.99,819.000000,,2013-04-27 23:32:00,
2013-04-27 16:40:00,77.0,39.0,30.19,WNW,288,3.0,4.0,26,-99.99,,,-99.99,642.000000,,2013-04-27 23:40:00,
2013-04-27 17:21:00,77.0,39.0,30.19,WNW,288,3.0,4.0,26,-99.99,,,-99.99,642.000000,,2013-04-28 00:21:00,
2013-04-27 17:31:00,77.0,39.0,30.19,WNW,288,3.0,4.0,26,-99.99,,,-99.99,642.000000,,2013-04-28 00:31:00,
2013-04-27 17:40:00,80.0,41.0,30.17,West,278,2.0,5.0,25,-99.99,,,-99.99,426.000000,,2013-04-28 00:40:00,
2013-04-27 18:21:00,80.0,41.0,30.17,West,278,2.0,5.0,25,-99.99,,,-99.99,426.000000,,2013-04-28 01:21:00,
2013-04-27 18:40:00,78.0,41.0,30.16,NW,314,3.0,6.0,27,-99.99,,,-99.99,203.000000,,2013-04-28 01:40:00,
2013-04-27 19:21:00,78.0,41.0,30.16,NW,314,3.0,6.0,27,-99.99,,,-99.99,203.000000,,2013-04-28 02:21:00,
2013-04-27 19:32:00,78.0,41.0,30.16,NW,314,3.0,6.0,27,-99.99,,,-99.99,203.000000,,2013-04-28 02:32:00,
2013-04-27 19:40:00,76.0,32.0,30.15,NNE,29,4.0,7.0,20,-99.99,,,-99.99,30.000000,,2013-04-28 02:40:00,
2013-04-27 20:21:00,76.0,32.0,30.15,NNE,29,4.0,7.0,20,-99.99,,,-99.99,30.000000,,2013-04-28 03:21:00,
2013-04-27 20:32:00,76.0,32.0,30.15,NNE,29,4.0,7.0,20,-99.99,,,-99.99,30.000000,,2013-04-28 03:32:00,
2013-04-27 20:40:00,75.0,27.0,30.15,East,90,5.0,8.0,17,-99.99,,,-99.99,0.000000,,2013-04-28 03:40:00,
2013-04-27 21:22:00,75.0,27.0,30.15,East,90,5.0,8.0,17,-99.99,,,-99.99,0.000000,,2013-04-28 04:22:00,
2013-04-27 22:22:00,74.0,22.0,30.16,East,85,5.0,7.0,14,-99.99,,,-99.99,0.000000,,2013-04-28 05:22:00,
2013-04-27 22:40:00,75.0,22.0,30.16,East,93,4.0,5.0,14,-99.99,,,-99.99,0.000000,,2013-04-28 05:40:00,